Regional Weather Roundup
Issued by NWS

Home | Current Version | Previous Version | Graphics & Text | Print | Product List | Glossary On
Versions: 1 2 3 4 5 6 7 8 9 10 11 12 13 14 15 16 17 18 19 20 21 22 23 24 25 26 27 28 29 30 31 32 33 34 35 36 37 38 39 40 41 42 43 44 45 46 47 48 49 50
000
ASUS45 KBOI 010110
RWRID
WEATHER ROUNDUP FOR IDAHO
NATIONAL WEATHER SERVICE BOISE ID
700 PM MDT TUE SEP 30 2014

NOTE: "FAIR" INDICATES FEW OR NO CLOUDS BELOW 12000 FEET
WITH NO SIGNIFICANT WEATHER AND/OR OBSTRUCTIONS TO VISIBILITY

IDZ012-014-010200-
SOUTHWEST IDAHO


CITY           SKY/WX    TMP DP  RH WIND       PRES   REMARKS
BOISE          PTCLDY    60  34  37 NW15      29.96S
CALDWELL       CLOUDY    61  36  39 N12       29.99S
MOUNTAIN HOME  CLEAR     58  35  41 NW15      29.96S
$$

IDZ016-017-010200-
SOUTHCENTRAL IDAHO


CITY           SKY/WX    TMP DP  RH WIND       PRES   REMARKS
BURLEY         MOCLDY    52  35  52 W20G29    29.92R
JEROME         PTCLDY    52  32  46 SW20G26   29.95S
TWIN FALLS     PTCLDY    53  35  50 W18G29    29.96S HAZE
$$

IDZ019>023-010200-
SOUTHEAST IDAHO


CITY           SKY/WX    TMP DP  RH WIND       PRES   REMARKS
IDAHO FALLS    PTCLDY    53  39  59 SW17      29.88R
POCATELLO      PTCLDY    52  38  58 SW15      29.91S
REXBURG        CLOUDY    52  39  61 SW10G21   29.86R
$$

IDZ006-010-011-018-031-032-010200-
CENTRAL IDAHO MOUNTAINS


CITY           SKY/WX    TMP DP  RH WIND       PRES   REMARKS
MCCALL         MOCLDY    48  30  49 NW12      29.99R
HAILEY         PTCLDY    54  34  47 W9        29.87R
STANLEY          N/A     38  35  89 E3        29.99F
SALMON         CLOUDY    50  36  57 N15       29.92R
CHALLIS        CLOUDY    48  35  60 W10       29.93R
$$

IDZ002-004-006-007-026-010200-
NORTHERN IDAHO


CITY           SKY/WX    TMP DP  RH WIND       PRES   REMARKS
LEWISTON       CLOUDY    64  37  36 W17G23    29.94F
LOWELL           N/A     53  49  86 NW3       30.00R
COEUR D`ALENE  MOCLDY    55  43  62 CALM      29.92R
MULLAN PASS    HVY RAIN  33  32  96 NW12G22   29.96S VSB 3/4 WCI  24
$$



USA.gov is the U.S. government's official web portal to all federal, state and local government web resources and services.